| time (UTC) | temp C | wind direction | speed KPH | gust KPH | rain 1hr cm | rain 24hr cm | rain mn cm | humidity % | barometer mb |
| 20260508041553 | 3 | 177 | 0.0 | 0.0 | 0.00 | 0.61 | 0.00 | 85 | 1010.9 |
| 20260508040046 | 4 | 177 | 0.0 | 0.0 | 0.00 | 0.61 | 0.61 | 83 | 1010.9 |
| 20260508034539 | 4 | 177 | 0.0 | 0.0 | 0.00 | 0.61 | 0.61 | 84 | 1011.0 |
| 20260508033037 | 5 | 177 | 0.0 | 0.0 | 0.00 | 0.61 | 0.61 | 82 | 1011.1 |
| 20260508031636 | 5 | 177 | 0.0 | 0.0 | 0.00 | 0.61 | 0.61 | 82 | 1011.2 |
| 20260508030033 | 5 | 177 | 0.0 | 0.0 | 0.00 | 0.64 | 0.61 | 80 | 1011.1 |
| 20260508024543 | 5 | 177 | 0.0 | 0.0 | 0.00 | 0.64 | 0.61 | 79 | 1011.0 |
| 20260508023028 | 6 | 177 | 0.0 | 0.0 | 0.00 | 0.64 | 0.61 | 77 | 1010.9 |
| 20260508021527 | 6 | 177 | 0.0 | 0.0 | 0.00 | 0.64 | 0.61 | 75 | 1010.9 |
| 20260508020006 | 7 | 177 | 0.0 | 0.0 | 0.00 | 0.64 | 0.61 | 71 | 1010.9 |
| 20260508014503 | 8 | 177 | 0.0 | 0.0 | 0.00 | 0.64 | 0.61 | 70 | 1010.7 |
| 20260508013046 | 8 | 177 | 0.0 | 0.0 | 0.00 | 0.64 | 0.61 | 69 | 1010.6 |
| 20260508011543 | 8 | 177 | 0.0 | 0.0 | 0.00 | 0.64 | 0.61 | 67 | 1010.6 |
| 20260508010033 | 8 | 186 | 0.0 | 0.0 | 0.00 | 0.64 | 0.61 | 67 | 1010.5 |
| 20260508004526 | 9 | 286 | 0.0 | 0.0 | 0.00 | 0.64 | 0.61 | 64 | 1010.2 |
| 20260508003014 | 10 | 286 | 0.0 | 0.0 | 0.00 | 0.64 | 0.61 | 61 | 1009.9 |
| 20260508001513 | 10 | 285 | 0.0 | 0.0 | 0.00 | 0.64 | 0.61 | 55 | 1009.7 |
| 20260508000013 | 11 | 196 | 0.0 | 0.0 | 0.00 | 0.64 | 0.61 | 52 | 1009.6 |
| 20260507234516 | 12 | 273 | 0.0 | 6.4 | 0.00 | 0.64 | 0.61 | 48 | 1009.4 |
| 20260507233025 | 13 | 261 | 0.0 | 9.7 | 0.00 | 0.64 | 0.61 | 46 | 1009.3 |
| 20260507231509 | 13 | 114 | 0.0 | 8.0 | 0.00 | 0.64 | 0.61 | 46 | 1009.2 |
| 20260507230008 | 13 | 318 | 0.0 | 4.8 | 0.00 | 0.64 | 0.61 | 46 | 1009.0 |
| 20260507224508 | 14 | 264 | 1.6 | 11.3 | 0.00 | 0.64 | 0.61 | 44 | 1009.0 |
| 20260507223050 | 15 | 288 | 0.0 | 11.3 | 0.00 | 0.64 | 0.61 | 44 | 1009.0 |
| 20260507221550 | 16 | 105 | 0.0 | 12.9 | 0.00 | 0.64 | 0.61 | 42 | 1008.9 |
| 20260507220033 | 17 | 292 | 0.0 | 9.7 | 0.00 | 0.64 | 0.61 | 43 | 1008.8 |
| 20260507214534 | 16 | 283 | 4.8 | 16.1 | 0.00 | 0.64 | 0.61 | 40 | 1008.7 |
| 20260507213015 | 17 | 138 | 1.6 | 9.7 | 0.00 | 0.64 | 0.61 | 41 | 1008.6 |
| 20260507211520 | 17 | 281 | 1.6 | 11.3 | 0.00 | 0.64 | 0.61 | 38 | 1008.4 |
| 20260507204557 | 17 | 250 | 3.2 | 12.9 | 0.00 | 0.71 | 0.61 | 43 | 1008.3 |
| 20260507203045 | 17 | 300 | 1.6 | 14.5 | 0.00 | 0.71 | 0.61 | 40 | 1008.4 |
| 20260507201537 | 17 | 297 | 3.2 | 8.0 | 0.00 | 0.71 | 0.61 | 42 | 1008.4 |
| 20260507200022 | 16 | 278 | 0.0 | 14.5 | 0.00 | 0.71 | 0.61 | 44 | 1008.4 |
| 20260507194522 | 17 | 274 | 0.0 | 9.7 | 0.00 | 0.71 | 0.61 | 44 | 1008.6 |
| 20260507193022 | 16 | 243 | 1.6 | 16.1 | 0.00 | 0.71 | 0.61 | 41 | 1008.7 |
| 20260507191518 | 17 | 289 | 3.2 | 12.9 | 0.00 | 0.71 | 0.61 | 45 | 1008.8 |
| 20260507190016 | 16 | 6 | 3.2 | 11.3 | 0.00 | 0.79 | 0.61 | 38 | 1008.9 |
| 20260507184515 | 16 | 257 | 0.0 | 12.9 | 0.00 | 0.79 | 0.61 | 45 | 1009.1 |
| 20260507183014 | 16 | 122 | 0.0 | 17.7 | 0.00 | 0.79 | 0.61 | 46 | 1009.3 |
| 20260507181513 | 16 | 188 | 0.0 | 9.7 | 0.00 | 0.79 | 0.61 | 45 | 1009.3 |
| 20260507180054 | 16 | 285 | 4.8 | 20.9 | 0.00 | 0.97 | 0.61 | 41 | 1009.6 |
| 20260507174553 | 16 | 57 | 1.6 | 8.0 | 0.00 | 0.97 | 0.61 | 42 | 1009.8 |
| 20260507173042 | 16 | 275 | 1.6 | 12.9 | 0.00 | 0.97 | 0.61 | 40 | 1010.1 |
| 20260507171541 | 16 | 55 | 4.8 | 14.5 | 0.00 | 0.97 | 0.61 | 42 | 1010.3 |
| 20260507170040 | 16 | 1 | 3.2 | 12.9 | 0.00 | 0.97 | 0.61 | 42 | 1010.3 |
| 20260507164548 | 15 | 311 | 1.6 | 12.9 | 0.00 | 0.97 | 0.61 | 43 | 1010.5 |
| 20260507163035 | 15 | 310 | 3.2 | 12.9 | 0.00 | 0.97 | 0.61 | 46 | 1010.6 |
| 20260507161535 | 15 | 143 | 4.8 | 16.1 | 0.00 | 0.97 | 0.61 | 44 | 1010.9 |
| 20260507160033 | 15 | 308 | 4.8 | 17.7 | 0.00 | 0.97 | 0.61 | 46 | 1011.1 |
| 20260507154531 | 15 | 6 | 3.2 | 12.9 | 0.00 | 0.97 | 0.61 | 42 | 1011.1 |
| 20260507153028 | 14 | 347 | 1.6 | 16.1 | 0.00 | 0.97 | 0.61 | 47 | 1011.3 |
| 20260507151509 | 13 | 131 | 1.6 | 19.3 | 0.00 | 0.97 | 0.61 | 47 | 1011.4 |
| 20260507150019 | 13 | 44 | 3.2 | 16.1 | 0.00 | 0.97 | 0.61 | 45 | 1011.4 |
| 20260507144549 | 13 | 278 | 4.8 | 14.5 | 0.00 | 0.97 | 0.61 | 47 | 1011.4 |
| 20260507143048 | 13 | 294 | 4.8 | 17.7 | 0.00 | 0.97 | 0.61 | 51 | 1011.4 |
| 20260507141525 | 12 | 304 | 1.6 | 11.3 | 0.00 | 0.97 | 0.61 | 55 | 1011.4 |
| 20260507140027 | 12 | 233 | 1.6 | 9.7 | 0.00 | 0.97 | 0.61 | 58 | 1011.6 |
| 20260507134509 | 12 | 311 | 4.8 | 17.7 | 0.00 | 0.97 | 0.61 | 57 | 1011.2 |
| 20260507133002 | 12 | 287 | 3.2 | 14.5 | 0.00 | 0.97 | 0.61 | 63 | 1011.2 |
| 20260507131550 | 11 | 114 | 1.6 | 12.9 | 0.00 | 0.97 | 0.61 | 70 | 1011.3 |
| 20260507130055 | 11 | 63 | 3.2 | 16.1 | 0.00 | 0.97 | 0.61 | 69 | 1011.3 |
| 20260507124530 | 10 | 268 | 4.8 | 14.5 | 0.00 | 0.97 | 0.61 | 74 | 1011.5 |
| 20260507123022 | 9 | 312 | 4.8 | 16.1 | 0.00 | 0.97 | 0.61 | 77 | 1011.7 |
| 20260507121507 | 9 | 49 | 0.0 | 8.0 | 0.00 | 0.97 | 0.61 | 85 | 1011.6 |
| 20260507120007 | 8 | 228 | 0.0 | 4.8 | 0.00 | 0.97 | 0.61 | 90 | 1011.1 |
| 20260507114506 | 8 | 359 | 0.0 | 4.8 | 0.00 | 0.97 | 0.61 | 91 | 1011.1 |
| 20260507113010 | 8 | 279 | 1.6 | 8.0 | 0.00 | 0.97 | 0.61 | 92 | 1011.3 |
| 20260507111603 | 8 | 345 | 0.0 | 6.4 | 0.00 | 0.97 | 0.61 | 93 | 1010.9 |
| 20260507110100 | 8 | 258 | 0.0 | 6.4 | 0.00 | 0.97 | 0.61 | 93 | 1010.8 |
| 20260507104557 | 8 | 124 | 0.0 | 1.6 | 0.03 | 0.97 | 0.61 | 94 | 1010.4 |
| 20260507103056 | 8 | 262 | 0.0 | 3.2 | 0.03 | 0.97 | 0.61 | 94 | 1010.6 |
| 20260507101543 | 8 | 156 | 0.0 | 6.4 | 0.05 | 0.97 | 0.61 | 94 | 1010.4 |
| 20260507100037 | 8 | 277 | 0.0 | 1.6 | 0.10 | 0.97 | 0.61 | 94 | 1010.2 |
| 20260507094517 | 8 | 195 | 0.0 | 4.8 | 0.13 | 0.94 | 0.58 | 94 | 1010.3 |
| 20260507093017 | 8 | 190 | 0.0 | 1.6 | 0.15 | 0.94 | 0.58 | 94 | 1009.8 |
| 20260507091558 | 8 | 285 | 0.0 | 3.2 | 0.15 | 0.91 | 0.56 | 94 | 1009.8 |
| 20260507084555 | 8 | 129 | 0.0 | 3.2 | 0.10 | 0.81 | 0.46 | 93 | 1009.9 |
| 20260507083044 | 8 | 163 | 0.0 | 6.4 | 0.15 | 0.79 | 0.43 | 93 | 1009.7 |
| 20260507081543 | 9 | 307 | 0.0 | 6.4 | 0.18 | 0.76 | 0.41 | 94 | 1010.1 |
| 20260507080043 | 9 | 307 | 0.0 | 6.4 | 0.18 | 0.71 | 0.38 | 94 | 1009.6 |
| 20260507074538 | 9 | 240 | 0.0 | 4.8 | 0.20 | 0.71 | 0.36 | 94 | 1010.0 |
| 20260507073035 | 9 | 271 | 0.0 | 1.6 | 0.23 | 0.64 | 0.28 | 93 | 1010.1 |
| 20260507071534 | 10 | 307 | 0.0 | 4.8 | 0.23 | 0.58 | 0.23 | 93 | 1010.0 |
| 20260507070033 | 10 | 229 | 0.0 | 0.0 | 0.20 | 0.56 | 0.20 | 92 | 1010.0 |
| 20260507064514 | 10 | 263 | 0.0 | 4.8 | 0.15 | 0.51 | 0.15 | 92 | 1009.5 |
| 20260507063012 | 10 | 297 | 0.0 | 4.8 | 0.03 | 0.38 | 0.03 | 91 | 1009.7 |
| 20260507061552 | 10 | 11 | 0.0 | 6.4 | 0.00 | 0.36 | 0.00 | 89 | 1008.8 |
| 20260507060049 | 10 | 284 | 0.0 | 4.8 | 0.00 | 0.36 | 0.00 | 89 | 1009.0 |
| 20260507054537 | 11 | 299 | 0.0 | 8.0 | 0.00 | 0.36 | 0.00 | 90 | 1009.3 |
| 20260507053029 | 11 | 271 | 0.0 | 6.4 | 0.00 | 0.36 | 0.00 | 89 | 1009.3 |
| 20260507051511 | 11 | 30 | 0.0 | 8.0 | 0.00 | 0.36 | 0.00 | 90 | 1009.4 |
| 20260507050008 | 11 | 143 | 0.0 | 6.4 | 0.00 | 0.36 | 0.00 | 91 | 1009.3 |
| 20260507044550 | 11 | 322 | 0.0 | 1.6 | 0.00 | 0.36 | 0.00 | 93 | 1009.8 |
| 20260507043047 | 11 | 124 | 0.0 | 1.6 | 0.00 | 0.36 | 0.00 | 93 | 1009.7 |